[[{"header":{"parameterUnit":"m.s-1","parameterCategory":1,"la1":30.2991,"la2":30.254,"lo1":-89.0895,"lo2":-89.0444,"dy":0.0017,"dx":0.0017,"nx":28,"ny":28,"refTime":"2025-01-20T03:00:00:Z","depth":0,"parameterNumber":2,"parameterNumberName":"U-component_of_WINDS"},"data":[0,0,0,0,0,0,0,0,0,0,0,0,0,0,0,0,0,0,0,0,0,0,0,0,0,0,0,0,0,0,0,0,0,0,0,0,0,0,0,0,0,0,0,0,0,0,0,0,0,0,0,0,0,0,0,0,0,0,-2.1416,-2.1417,0,-2.1463,-2.1463,-2.1464,-2.1404,-2.1402,-2.14,-2.1398,-2.1449,-2.1453,-2.1456,0,0,0,0,0,0,0,0,0,0,0,0,0,-2.1279,-2.1281,-2.1416,-2.1417,-2.1417,-2.1463,-2.1463,-2.1464,-2.1404,-2.1402,-2.1399,-2.1397,-2.1448,-2.1452,-2.1456,0,0,0,0,0,0,0,0,0,0,0,0,0,-2.1333,-2.1282,-2.1416,-2.1393,-2.1391,-2.1462,-2.1463,-2.1464,-2.1405,-2.1402,-2.1398,-2.1395,-2.1447,-2.1452,-2.1457,-2.1554,0,0,-2.1472,-2.1475,0,0,0,0,0,0,0,0,-2.133,-2.1338,-2.1396,-2.1395,-2.1393,-2.1424,-2.1433,-2.1494,-2.1406,-2.14,-2.1398,-2.1394,-2.1444,-2.1449,-2.1465,-2.1556,-2.1559,-2.1473,-2.1476,-2.1478,-2.148,0,0,0,0,0,0,0,-2.1326,-2.1336,-2.1435,-2.1397,-2.1395,-2.1381,-2.1385,-2.1445,-2.144,-2.14,-2.1396,-2.1402,-2.1442,-2.146,-2.1466,-2.1559,-2.1473,-2.1477,-2.148,-2.1482,-2.1732,-2.1735,0,0,0,0,0,0,-2.1325,-2.1333,-2.1433,-2.1436,-2.1353,-2.1386,-2.1391,-2.1418,-2.1439,-2.1439,-2.1405,-2.1399,-2.1453,-2.146,-2.1467,-2.1582,-2.1478,-2.1483,-2.1486,-2.1728,-2.1733,-2.1737,0,0,0,0,0,0,-2.1322,-2.1334,-2.1431,-2.1383,-2.1395,-2.1392,-2.1423,-2.142,-2.1438,-2.1442,-2.1442,-2.1424,-2.1451,-2.146,-2.1532,-2.1583,-2.1485,-2.149,-2.1724,-2.173,-2.1735,-2.1814,0,0,0,0,0,0,-2.1318,-2.1334,-2.137,-2.1385,-2.1397,-2.1495,-2.1426,-2.1423,-2.1446,-2.1439,-2.146,-2.146,-2.1449,-2.1525,-2.1538,-2.1589,-2.1494,-2.172,-2.1727,-2.1733,-2.1807,-2.1821,-2.1833,0,0,0,0,0,-2.1314,-2.1392,-2.1372,-2.1385,-2.1443,-2.1498,-2.1506,-2.149,-2.1451,-2.1488,-2.149,-2.146,-2.1575,-2.1533,-2.1546,-2.16,-2.1716,-2.1725,-2.1732,-2.18,-2.1818,-2.1833,0,0,0,0,0,0,-2.1385,-2.1393,-2.1372,-2.1456,-2.1477,-2.1488,-2.1534,-2.1509,-2.1542,-2.1535,-2.1514,-2.152,-2.1597,-2.1605,-2.1558,-2.1695,-2.164,-2.1651,-2.1687,-2.1704,-2.1717,-2.1714,-2.1498,0,0,0,0,0,-2.141,-2.1453,-2.1458,-2.1533,-2.1544,-2.1537,-2.1561,-2.1547,-2.1568,-2.1576,-2.1584,-2.1607,-2.1648,-2.1676,-2.1714,-2.1806,-2.1811,-2.185,-2.1863,-2.1874,-2.1885,-2.1934,-2.1952,-2.1763,-2.1763,-2.1763,0,0,-2.1464,-2.1473,-2.1502,-2.1547,-2.1561,-2.1608,-2.1545,-2.1597,-2.1631,-2.1585,-2.1653,-2.166,-2.1683,-2.1766,-2.1803,-2.1776,-2.1937,-2.1885,-2.1893,-2.1898,-2.1944,-2.1962,-2.1978,-2.1768,-2.1767,-2.1766,0,0,-2.1585,-2.1596,-2.1659,-2.1674,-2.1695,-2.169,-2.1705,-2.1719,-2.1721,-2.1789,-2.1755,-2.1796,-2.1867,-2.1885,-2.1904,-2.203,-2.2003,-2.2043,-2.2114,-2.2162,-2.2177,-2.219,-2.2236,-2.2253,-2.2053,-2.2053,-2.2053,0,-2.1649,-2.1716,-2.1695,-2.1748,-2.1769,-2.1727,-2.1791,-2.1807,-2.1841,-2.1856,-2.1824,-2.1913,-2.1926,-2.2012,-2.2042,-2.2058,-2.2076,-2.2041,-2.2177,-2.219,-2.2202,-2.2245,-2.2262,-2.2058,-2.2057,-2.2057,-2.2056,0,-2.1794,-2.1841,-2.1889,-2.1921,-2.1947,-2.2006,-2.1994,-2.2023,-2.2006,-2.2005,-2.2074,-2.2088,-2.2128,-2.2147,-2.2131,-2.2231,-2.2213,-2.2179,-2.2124,-2.2225,-2.2265,-2.2282,-2.2064,-2.2063,-2.2061,-2.206,0,0,-2.1964,-2.1981,-2.1999,-2.2013,-2.2032,-2.2069,-2.2125,-2.2163,-2.2189,-2.2213,-2.226,-2.232,-2.2289,-2.231,-2.2296,-2.2338,-2.2437,-2.2299,-2.2299,-2.2325,-2.2548,-2.2575,-2.2595,-2.2418,-2.2422,-2.2424,-2.2547,0,-2.2085,-2.2182,-2.2164,-2.2259,-2.2302,-2.2261,-2.2311,-2.2328,-2.2328,-2.2365,-2.2365,-2.2408,-2.2362,-2.2375,-2.2415,-2.2417,-2.2482,-2.2407,-2.2464,-2.2466,-2.2461,-2.2615,-2.2644,-2.2759,-2.2562,-2.2565,-2.2567,0,-2.2241,-2.2269,-2.2368,-2.2379,-2.2397,-2.2442,-2.2474,-2.251,-2.2529,-2.2525,-2.2548,-2.2525,-2.2582,-2.2524,-2.2602,-2.2552,-2.2574,-2.2578,-2.2582,-2.2588,-2.2524,-2.2627,-2.2796,-2.2814,-2.2591,-2.2589,-2.2588,0,-2.2356,-2.2419,-2.2486,-2.2498,-2.2513,-2.2546,-2.2554,-2.2569,-2.2593,-2.2621,-2.2636,-2.2671,-2.2691,-2.2719,-2.2707,-2.2665,-2.2788,-2.2729,-2.2788,-2.2788,-2.2817,-2.2816,-2.2993,-2.2829,-2.2828,-2.2828,-2.2828,0,-2.2495,-2.2558,-2.2538,-2.2579,-2.2648,-2.2626,-2.2695,-2.2698,-2.2711,-2.2753,-2.272,-2.276,-2.2741,-2.278,-2.277,-2.2837,-2.2846,-2.2845,-2.2843,-2.2849,-2.285,-2.2865,-2.2857,-2.2833,-2.2832,-2.2831,-2.283,0,-2.2637,-2.2626,-2.2696,-2.2704,-2.2707,-2.2757,-2.2764,-2.2803,-2.2799,-2.2852,-2.2863,-2.2857,-2.2901,-2.2891,-2.2939,-2.2933,-2.3017,-2.3003,-2.3011,-2.3008,-2.3068,-2.3063,-2.3263,-2.3288,-2.3106,-2.3107,-2.3109,0,-2.2727,-2.2774,-2.2786,-2.2811,-2.2821,-2.2862,-2.2884,-2.2864,-2.289,-2.2914,-2.295,-2.2991,-2.3022,-2.3094,-2.3095,-2.3132,-2.312,-2.3187,-2.3125,-2.313,-2.3122,-2.312,-2.3125,-2.32,-2.3202,-2.3204,-2.3205,0,-2.2889,-2.2881,-2.2915,-2.2947,-2.2975,-2.2999,-2.3021,-2.3043,-2.3024,-2.3055,-2.3099,-2.3123,-2.3171,-2.3212,-2.3245,-2.3254,-2.3228,-2.3224,-2.324,-2.3248,-2.3251,-2.3252,-2.3046,-2.322,-2.3219,-2.3218,-2.3217,-2.3216,-2.3009,-2.3048,-2.3063,-2.3101,-2.3115,-2.3135,-2.3172,-2.3171,-2.3207,-2.3244,-2.3229,-2.328,-2.3296,-2.3338,-2.3351,-2.339,-2.3365,-2.3388,-2.3394,-2.34,-2.3408,-2.3243,-2.3396,-2.3396,-2.3395,-2.3395,-2.3394,0,-2.317,-2.3177,-2.3212,-2.3242,-2.3273,-2.3242,-2.3264,-2.3292,-2.3336,-2.3353,-2.3384,-2.3434,-2.3473,-2.3475,-2.3512,-2.3543,-2.3532,-2.3554,-2.3552,-2.3555,-2.3428,-2.3411,-2.3562,-2.3562,-2.3562,-2.3562,-2.3562,-2.3562,-2.3258,-2.3323,-2.3316,-2.3388,-2.3393,-2.3441,-2.3456,-2.3475,-2.3489,-2.3545,-2.3577,-2.3578,-2.3589,-2.3626,-2.3661,-2.366,-2.3676,-2.3703,-2.3699,-2.3581,-2.3564,-2.3548,-2.3532,-2.3706,-2.3707,-2.3822,-2.3823,-2.3824]},{"header":{"parameterUnit":"m.s-1","parameterCategory":1,"la1":30.2991,"la2":30.254,"lo1":-89.0895,"lo2":-89.0444,"dy":0.0017,"dx":0.0017,"nx":28,"ny":28,"refTime":"2025-01-20T03:00:00:Z","depth":0,"parameterNumber":3,"parameterNumberName":"V-component_of_WINDS"},"data":[0,0,0,0,0,0,0,0,0,0,0,0,0,0,0,0,0,0,0,0,0,0,0,0,0,0,0,0,0,0,0,0,0,0,0,0,0,0,0,0,0,0,0,0,0,0,0,0,0,0,0,0,0,0,0,0,0,0,-9.0077,-9.0078,0,-9.0132,-9.0133,-9.0134,-9.0001,-8.9997,-8.9993,-8.9989,-9.0042,-9.0047,-9.0052,0,0,0,0,0,0,0,0,0,0,0,0,0,-8.9852,-8.9857,-9.0077,-9.0078,-9.0078,-9.0132,-9.0133,-9.0134,-9.0002,-8.9997,-8.9992,-8.9987,-9.004,-9.0046,-9.0053,0,0,0,0,0,0,0,0,0,0,0,0,0,-8.9933,-8.9858,-9.0077,-9.0019,-9.0015,-9.0132,-9.0133,-9.0134,-9.0003,-8.9997,-8.999,-8.9985,-9.0038,-9.0046,-9.0054,-9.0229,0,0,-9.0078,-9.0082,0,0,0,0,0,0,0,0,-8.9928,-8.9941,-9.0027,-9.0023,-9.0018,-9.0054,-9.0073,-9.0166,-9.0005,-9.0007,-8.9989,-8.9982,-9.0051,-9.0057,-9.0081,-9.0231,-9.0233,-9.0079,-9.0084,-9.0087,-9.0089,0,0,0,0,0,0,0,-8.9923,-8.9938,-9.0099,-9.0028,-9.0023,-8.9989,-8.9993,-9.009,-9.0063,-9.0007,-8.9997,-9.0006,-9.0047,-9.0074,-9.0081,-9.0234,-9.0079,-9.0086,-9.0091,-9.0094,-9.0529,-9.0535,0,0,0,0,0,0,-8.9925,-8.9934,-9.0097,-9.01,-8.9957,-8.9998,-9.0003,-9.0049,-9.0062,-9.0058,-9.0011,-8.9999,-9.0063,-9.0072,-9.0083,-9.0288,-9.0087,-9.0094,-9.0099,-9.0522,-9.0531,-9.0538,0,0,0,0,0,0,-8.9921,-8.9941,-9.0095,-9.0015,-9.0032,-9.0009,-9.0061,-9.0053,-9.008,-9.0065,-9.006,-9.0044,-9.0059,-9.0072,-9.0193,-9.0288,-9.0098,-9.0105,-9.0514,-9.0525,-9.0534,-9.07,0,0,0,0,0,0,-8.9915,-8.994,-9.0008,-9.0017,-9.0037,-9.0206,-9.0067,-9.0059,-9.0094,-9.008,-9.0095,-9.0091,-9.0055,-9.0182,-9.0201,-9.0295,-9.0112,-9.0506,-9.0519,-9.0531,-9.0686,-9.0715,-9.0739,0,0,0,0,0,-8.9908,-9.0052,-9.0012,-9.0032,-9.0121,-9.0212,-9.0223,-9.0179,-9.0102,-9.0169,-9.016,-9.009,-9.0275,-9.0196,-9.0216,-9.0314,-9.05,-9.0515,-9.053,-9.0674,-9.0709,-9.0739,0,0,0,0,0,0,-9.0053,-9.0052,-9.0008,-9.016,-9.0187,-9.019,-9.0272,-9.0218,-9.0267,-9.0251,-9.0193,-9.0198,-9.033,-9.0334,-9.0246,-9.0484,-9.0374,-9.0394,-9.0476,-9.051,-9.0536,-9.0532,-9.0118,0,0,0,0,0,-9.0103,-9.0178,-9.0173,-9.0307,-9.0323,-9.0296,-9.0334,-9.0299,-9.0324,-9.0334,-9.0334,-9.036,-9.0423,-9.0467,-9.0524,-9.0686,-9.0687,-9.0763,-9.079,-9.0812,-9.083,-9.0914,-9.0948,-9.0588,-9.0588,-9.0588,0,0,-9.0206,-9.0215,-9.0266,-9.0337,-9.0354,-9.0432,-9.0307,-9.0395,-9.0452,-9.0347,-9.0462,-9.0463,-9.0488,-9.0631,-9.0694,-9.0638,-9.0929,-9.0831,-9.0849,-9.0855,-9.0934,-9.0968,-9.0998,-9.0598,-9.0596,-9.0595,0,0,-9.0434,-9.0449,-9.0563,-9.0583,-9.061,-9.0591,-9.0618,-9.0629,-9.0626,-9.0741,-9.0664,-9.073,-9.0841,-9.0862,-9.0887,-9.1124,-9.1061,-9.1144,-9.1282,-9.1366,-9.1394,-9.1419,-9.1503,-9.1533,-9.1162,-9.1162,-9.1162,0,-9.0559,-9.0675,-9.0627,-9.0721,-9.0754,-9.0664,-9.0778,-9.0799,-9.0844,-9.0868,-9.0805,-9.0942,-9.0953,-9.1099,-9.1156,-9.118,-9.1208,-9.1142,-9.1394,-9.1419,-9.1441,-9.152,-9.1552,-9.1172,-9.1171,-9.117,-9.1169,0,-9.0827,-9.0909,-9.0997,-9.1044,-9.1086,-9.1189,-9.1156,-9.1204,-9.1165,-9.1152,-9.1269,-9.1279,-9.1337,-9.1368,-9.133,-9.1509,-9.1474,-9.1404,-9.1292,-9.1486,-9.1559,-9.1589,-9.1186,-9.1183,-9.118,-9.1177,0,0,-9.1149,-9.1168,-9.1201,-9.1221,-9.1245,-9.1306,-9.1404,-9.1462,-9.1505,-9.1538,-9.1618,-9.1714,-9.165,-9.1679,-9.1642,-9.1715,-9.1901,-9.1636,-9.1635,-9.1684,-9.2097,-9.2149,-9.2185,-9.1859,-9.1865,-9.1869,-9.2094,0,-9.1374,-9.1545,-9.1504,-9.1673,-9.1747,-9.1662,-9.1747,-9.1771,-9.1761,-9.1821,-9.1809,-9.1878,-9.1788,-9.1805,-9.1874,-9.1864,-9.1983,-9.1847,-9.1932,-9.1936,-9.1929,-9.2223,-9.2279,-9.2491,-9.2123,-9.2128,-9.2131,0,-9.166,-9.1706,-9.1883,-9.1894,-9.1923,-9.2001,-9.205,-9.2109,-9.2133,-9.212,-9.2153,-9.2102,-9.2197,-9.2085,-9.2215,-9.2124,-9.2156,-9.2157,-9.2164,-9.217,-9.2045,-9.2237,-9.2558,-9.2589,-9.2176,-9.2172,-9.2169,0,-9.1877,-9.1982,-9.2101,-9.2121,-9.2137,-9.2194,-9.2203,-9.222,-9.2257,-9.23,-9.2323,-9.2376,-9.2405,-9.2446,-9.241,-9.2332,-9.2545,-9.243,-9.2537,-9.2538,-9.2585,-9.2583,-9.2915,-9.2607,-9.2607,-9.2606,-9.2606,0,-9.2133,-9.2244,-9.2199,-9.2272,-9.2393,-9.2345,-9.2466,-9.2464,-9.2481,-9.2551,-9.248,-9.2548,-9.2495,-9.2558,-9.253,-9.2641,-9.2655,-9.2646,-9.2637,-9.2653,-9.2654,-9.2673,-9.2657,-9.2615,-9.2613,-9.2611,-9.261,0,-9.2395,-9.237,-9.2494,-9.2499,-9.2503,-9.2592,-9.2595,-9.2662,-9.2647,-9.2737,-9.2755,-9.2731,-9.2801,-9.2769,-9.2841,-9.2822,-9.2965,-9.2937,-9.2958,-9.2951,-9.3058,-9.3049,-9.3415,-9.346,-9.3123,-9.3127,-9.3129,0,-9.256,-9.2644,-9.2658,-9.2701,-9.2716,-9.2785,-9.2823,-9.2778,-9.2819,-9.2852,-9.2915,-9.2979,-9.3027,-9.3142,-9.313,-9.3185,-9.3157,-9.3281,-9.3164,-9.3177,-9.3158,-9.3153,-9.3161,-9.3305,-9.3309,-9.3312,-9.3314,0,-9.2856,-9.2839,-9.2897,-9.2951,-9.2998,-9.3038,-9.3071,-9.311,-9.3066,-9.3116,-9.3187,-9.3225,-9.3299,-9.3362,-9.341,-9.3417,-9.3359,-9.3351,-9.3378,-9.3395,-9.3403,-9.34,-9.3022,-9.3343,-9.334,-9.3338,-9.3336,-9.3335,-9.3074,-9.3144,-9.3165,-9.3232,-9.3253,-9.3285,-9.3349,-9.3342,-9.34,-9.3458,-9.3427,-9.351,-9.353,-9.3588,-9.3603,-9.3666,-9.3616,-9.3656,-9.3666,-9.3677,-9.3691,-9.3394,-9.3674,-9.3673,-9.3673,-9.3672,-9.3671,0,-9.3365,-9.3375,-9.3437,-9.3486,-9.3539,-9.348,-9.3514,-9.3561,-9.3635,-9.3659,-9.3708,-9.3789,-9.385,-9.3843,-9.3899,-9.395,-9.3925,-9.3966,-9.3962,-9.3964,-9.3732,-9.3703,-9.3986,-9.3986,-9.3986,-9.3986,-9.3986,-9.3986,-9.3523,-9.3638,-9.3624,-9.3748,-9.3756,-9.3838,-9.3862,-9.3891,-9.391,-9.4004,-9.4055,-9.4051,-9.4062,-9.4118,-9.4171,-9.4167,-9.419,-9.4242,-9.4228,-9.4012,-9.3981,-9.3951,-9.3923,-9.4248,-9.4248,-9.4455,-9.4456,-9.4458]}]]